N5MDT Weather Reports


time (UTC)temp
F
wind
direction
speed
knots
gust
knots
rain 1hr
in
rain 24hr
in
rain mn
in
humidity
%
barometer
mb
20260507195842 81 23 0.9 2.6 0.00 0.00 0.00 62 1015.7
20260507194841 80 59 0.0 3.5 0.00 0.00 0.00 62 1016.2
20260507193841 79 21 0.0 4.3 0.00 0.00 0.00 65 1016.3
20260507192841 78 31 0.0 3.5 0.00 0.00 0.00 65 1016.2
20260507191841 77 19 0.9 1.7 0.00 0.00 0.00 65 1016.2
20260507190841 77 38 0.0 1.7 0.00 0.00 0.00 67 1016.4
20260507185841 76 32 0.0 1.7 0.00 0.00 0.00 68 1016.8
20260507184841 75 38 0.0 2.6 0.00 0.00 0.00 69 1017.3
20260507183841 74 311 2.6 3.5 0.00 0.00 0.00 69 1017.1
20260507182841 74 63 0.0 1.7 0.00 0.00 0.00 70 1017.1
20260507181841 73 13 0.0 1.7 0.00 0.00 0.00 70 1017.3
20260507180841 72 34 0.0 3.5 0.00 0.00 0.00 72 1017.6
20260507175840 72 300 3.5 3.5 0.00 0.00 0.00 70 1017.5
20260507174840 71 298 0.9 3.5 0.00 0.00 0.00 72 1017.7
20260507173840 71 323 0.0 2.6 0.00 0.00 0.00 73 1017.6
20260507172841 70 343 0.0 2.6 0.00 0.00 0.00 74 1017.8
20260507171840 69 338 0.0 4.3 0.00 0.00 0.00 75 1018.2
20260507170840 68 340 0.9 3.5 0.00 0.00 0.00 76 1018.0
20260507165840 68 30 0.9 0.9 0.00 0.00 0.00 77 1018.0
20260507164840 67 330 0.0 1.7 0.00 0.00 0.00 77 1018.0
20260507163840 67 339 0.0 1.7 0.00 0.00 0.00 77 1017.8
20260507162840 66 41 0.0 0.9 0.00 0.00 0.00 78 1017.7
20260507161840 66 42 0.0 2.6 0.00 0.00 0.00 78 1017.5
20260507160840 65 51 0.0 1.7 0.00 0.00 0.00 79 1017.5
20260507155840 65 337 0.0 4.3 0.00 0.00 0.00 79 1017.7
20260507154840 64 23 0.0 1.7 0.00 0.00 0.00 80 1016.9
20260507153840 64 59 1.7 1.7 0.00 0.00 0.00 81 1017.0
20260507152840 63 41 0.9 0.9 0.00 0.00 0.00 81 1017.3
20260507151840 63 44 0.0 2.6 0.00 0.00 0.00 80 1017.6
20260507150839 63 5 0.9 7.8 0.00 0.00 0.00 81 1017.7
20260507145839 63 318 0.0 2.6 0.00 0.00 0.00 81 1017.8
20260507144840 63 12 0.0 3.5 0.00 0.00 0.00 82 1017.8
20260507143840 63 332 0.9 1.7 0.00 0.00 0.00 82 1018.2
20260507142839 62 322 1.7 4.3 0.00 0.00 0.00 82 1018.0
20260507141839 62 348 0.9 1.7 0.00 0.00 0.00 82 1018.0
20260507140839 62 50 0.0 2.6 0.00 0.00 0.00 82 1017.9
20260507135839 62 331 0.9 2.6 0.00 0.00 0.00 82 1017.9
20260507134839 62 337 0.0 4.3 0.00 0.00 0.00 82 1018.1
20260507133839 62 330 0.0 0.0 0.00 0.00 0.00 82 1018.0
20260507132839 62 355 0.0 0.0 0.00 0.00 0.00 83 1017.9
20260507131839 62 68 0.0 0.0 0.00 0.00 0.00 83 1017.8
20260507130839 62 327 0.0 1.7 0.00 0.00 0.00 83 1017.9
20260507125838 62 348 0.0 4.3 0.00 0.00 0.00 83 1018.2
20260507124838 63 335 0.0 3.5 0.00 0.00 0.00 83 1018.0
20260507123839 63 15 0.0 4.3 0.00 0.00 0.00 83 1017.6
20260507122839 63 360 0.0 3.5 0.00 0.00 0.00 83 1017.0
20260507121839 63 329 0.0 2.6 0.00 0.00 0.00 82 1016.9
20260507120839 63 5 0.0 3.5 0.00 0.00 0.00 82 1016.6
20260507115838 63 31 0.0 0.9 0.00 0.00 0.00 82 1016.2
20260507114838 63 33 0.0 4.3 0.00 0.00 0.00 82 1016.2
20260507113839 64 29 0.0 3.5 0.00 0.00 0.00 82 1016.4
20260507112838 64 336 0.0 4.3 0.00 0.00 0.00 82 1016.3
20260507111838 64 320 2.6 2.6 0.00 0.00 0.00 82 1016.6
20260507110838 64 286 0.0 1.7 0.00 0.00 0.00 82 1016.1
20260507105838 64 302 0.9 1.7 0.00 0.00 0.00 82 1016.0
20260507104838 64 19 0.0 0.0 0.00 0.00 0.00 82 1015.8
20260507103838 65 335 0.0 1.7 0.00 0.00 0.00 82 1015.8
20260507102838 65 325 0.0 0.0 0.00 0.00 0.00 82 1015.2
20260507101837 65 311 0.0 0.9 0.00 0.00 0.00 82 1015.7
20260507100837 65 65 0.0 0.9 0.00 0.00 0.00 82 1015.2
20260507095838 65 50 0.0 0.0 0.00 0.00 0.00 82 1015.5
20260507094837 65 53 0.0 1.7 0.00 0.00 0.00 82 1014.8
20260507093837 65 59 0.0 0.9 0.00 0.00 0.00 83 1014.4
20260507092838 65 57 0.0 0.9 0.00 0.00 0.00 82 1014.3
20260507091837 65 65 0.0 2.6 0.00 0.00 0.00 83 1014.2
20260507090837 65 63 0.0 1.7 0.00 0.00 0.00 83 1014.5
20260507085837 66 291 0.0 0.0 0.00 0.00 0.00 83 1014.8
20260507084837 66 91 0.0 1.7 0.00 0.00 0.00 83 1014.9
20260507083837 66 15 0.0 0.0 0.00 0.00 0.00 83 1014.6
20260507082837 66 355 0.0 1.7 0.00 0.00 0.00 82 1014.5
20260507081837 66 9 0.0 0.9 0.00 0.00 0.00 82 1014.4
20260507080837 66 89 0.9 1.7 0.00 0.00 0.00 82 1014.6
20260507075837 66 346 0.0 1.7 0.00 0.00 0.00 82 1014.6
20260507074837 66 351 0.0 5.2 0.00 0.00 0.00 82 1015.0
20260507073836 66 338 0.0 0.9 0.00 0.00 0.00 82 1014.9
20260507072836 66 312 0.9 3.5 0.00 0.00 0.00 81 1015.1
20260507071836 66 28 0.0 3.5 0.00 0.00 0.00 81 1014.6
20260507070836 66 333 0.0 2.6 0.00 0.00 0.00 81 1015.4
20260507065836 66 306 0.0 2.6 0.00 0.00 0.00 81 1015.3
20260507064836 66 287 0.0 2.6 0.00 0.00 0.00 81 1015.4
20260507063836 66 355 0.9 2.6 0.00 0.00 0.00 81 1015.4
20260507062836 67 331 0.0 2.6 0.00 0.00 0.00 80 1015.4
20260507061836 67 5 0.9 4.3 0.00 0.00 0.00 80 1015.4
20260507060836 67 348 0.0 2.6 0.00 0.00 0.00 80 1014.8
20260507055836 67 355 0.0 2.6 0.00 0.00 0.00 80 1015.0
20260507054836 67 349 0.0 6.1 0.00 0.00 0.00 80 1015.1
20260507053836 67 331 0.0 2.6 0.00 0.00 0.00 80 1015.2
20260507052836 67 328 0.0 4.3 0.00 0.00 0.00 79 1015.1
20260507051836 67 326 0.0 1.7 0.00 0.00 0.00 79 1014.7
20260507050835 67 19 0.0 3.5 0.00 0.00 0.00 79 1014.8
20260507045835 67 343 0.9 1.7 0.00 0.00 0.00 78 1015.0
20260507044835 67 322 0.0 2.6 0.00 0.00 0.00 78 1015.1
20260507043835 67 311 0.9 1.7 0.00 0.00 0.00 78 1015.2
20260507042836 68 321 0.9 1.7 0.00 0.00 0.00 78 1014.8
20260507041836 68 336 0.0 2.6 0.00 0.00 0.00 78 1014.9
20260507040835 68 310 0.0 2.6 0.00 0.00 0.00 77 1014.3
20260507035835 68 317 0.0 1.7 0.00 0.00 0.00 77 1014.7
20260507034836 68 5 0.0 2.6 0.00 0.00 0.00 77 1014.9
20260507033836 69 348 0.0 2.6 0.00 0.00 0.00 77 1014.7
20260507032835 69 327 0.0 1.7 0.00 0.00 0.00 77 1014.4
20260507031835 69 294 0.0 4.3 0.00 0.00 0.00 77 1014.1
20260507030835 69 346 0.0 5.2 0.00 0.00 0.00 76 1014.0
20260507025835 70 13 0.9 2.6 0.00 0.00 0.00 76 1013.6
20260507024835 70 336 0.0 2.6 0.00 0.00 0.00 76 1013.3
20260507023835 71 12 1.7 5.2 0.00 0.00 0.00 75 1013.3
20260507022835 71 306 0.9 3.5 0.00 0.00 0.00 76 1013.2
20260507021835 71 306 0.0 6.1 0.00 0.00 0.00 76 1012.8
20260507020835 72 339 0.0 3.5 0.00 0.00 0.00 75 1012.6
20260507015834 72 317 0.9 1.7 0.00 0.00 0.00 75 1012.6
20260507014834 72 320 0.0 2.6 0.00 0.00 0.00 75 1012.3
20260507013834 72 5 0.0 2.6 0.00 0.00 0.00 75 1012.2
20260507012834 73 317 0.0 1.7 0.00 0.00 0.00 75 1012.1
20260507011834 73 332 0.0 2.6 0.00 0.00 0.00 74 1011.9
20260507010834 73 298 0.9 3.5 0.00 0.00 0.00 74 1011.8
20260507005834 74 325 1.7 7.0 0.00 0.00 0.00 73 1011.7
20260507004834 74 36 0.0 3.5 0.00 0.00 0.00 73 1011.7
20260507003834 75 321 0.0 7.8 0.00 0.00 0.00 73 1011.4
20260507002833 76 307 0.9 4.3 0.00 0.00 0.00 72 1011.2
20260507001833 76 347 0.0 1.7 0.00 0.00 0.00 73 1011.0
20260507000834 77 309 0.0 4.3 0.00 0.00 0.00 73 1010.9
20260506235833 77 321 0.9 2.6 0.00 0.00 0.00 73 1010.8
20260506234833 78 325 0.0 2.6 0.00 0.00 0.00 72 1010.7
20260506233833 79 17 0.9 2.6 0.00 0.00 0.00 71 1010.7
20260506232833 80 329 0.9 4.3 0.00 0.00 0.00 71 1010.6
20260506231833 81 315 3.5 3.5 0.00 0.00 0.00 70 1010.5
20260506230833 83 314 0.0 2.6 0.00 0.00 0.00 70 1010.4
20260506225833 85 311 0.9 7.0 0.00 0.00 0.00 69 1010.3
20260506224833 87 294 4.3 7.8 0.00 0.00 0.00 72 1010.0
20260506223833 87 296 1.7 3.5 0.00 0.00 0.00 73 1009.7
20260506222832 87 300 0.0 0.0 0.00 0.00 0.00 73 1009.6
20260506221832 86 300 0.0 0.0 0.00 0.00 0.00 72 1009.4
20260506220833 86 181 0.0 0.0 0.00 0.00 0.00 71 1009.5
20260506215832 86 181 0.0 0.0 0.00 0.00 0.00 72 1009.4
20260506214832 86 181 0.0 0.0 0.00 0.00 0.00 72 1009.4
20260506213832 87 181 0.0 0.0 0.00 0.00 0.00 71 1009.5
20260506212832 87 181 0.0 0.0 0.00 0.00 0.00 70 1009.7
20260506211832 88 181 0.0 0.0 0.00 0.00 0.00 70 1009.6
20260506210832 88 181 0.0 0.0 0.00 0.00 0.00 70 1009.7
20260506205832 88 181 0.0 0.9 0.00 0.00 0.00 71 1009.7
20260506204832 87 200 0.0 0.9 0.00 0.00 0.00 71 1009.8
20260506203832 87 200 0.0 2.6 0.00 0.00 0.00 73 1009.9
20260506202832 86 155 0.0 0.0 0.00 0.00 0.00 75 1009.8
20260506201831 85 201 0.0 2.6 0.00 0.00 0.00 75 1010.2
20260506200831 85 94 2.6 5.2 0.00 0.00 0.00 75 1010.2